Weather in Komarovo

Russia / Chechen Republic     43°31′19″N   45°02′31″E
temp.,
°C
wind,
m/s
gust,
m/s
humid.,
%
clouds,
%
prec.,
mm/h
press.,
hPa
HPBL,
m
23 april, fri
fri2300:00+9nw2295100 0.8 1022140
03:00+9wnw2597100 5.1 1022356
06:00+9w2696100 7.9 1024466
09:00+11wnw6885100 8.6 1025673
12:00+16wnw565310 0.2 10231712
15:00+17nw44453 0.2 10221768
18:00+16nne11560 0.0 102211
21:00+12ese22616 0.0 102113
24 april, sat
sat2400:00+10se226873 0.0 102018
03:00+9se2272100 0.0 101811
06:00+10s1173100 0.0 101910
09:00+15nne335670 0.0 1018654
12:00+18n44496 0.0 10181229
15:00+19n444696 0.0 10181738
18:00+15n476570 0.0 1020273
21:00+14nne126389 0.0 102141
25 april, sun
sun2500:00+13nnw1167100 0.0 102112
03:00+13nnw2368100 0.0 102184
06:00+11nne268388 0.0 1022372
09:00+14ne457192 0.1 10201088
12:00+16ne4561100 0.0 10191173
15:00+18ne455469 0.0 10161378
18:00+16ne4766100 0.0 1014299
21:00+11e41065100 0.0 1015343
26 april, mon
mon2600:00+9ene117843 0.0 101411
03:00+9nne2284100 0.0 101335
06:00+9ene118834 0.0 101357
09:00+14ene2264100 0.0 1011587
12:00+16nne3359100 0.0 1010780
15:00+17ne335553 0.0 1009895
18:00+15n1170100 0.3 101072
21:00+11wnw2395100 3.7 1013245
27 april, tue
tue2700:00+10nnw5790100 1.8 1015498
03:00+9nw2393100 1.9 1016306
06:00+9nnw2595100 1.6 1017411
09:00+8nnw4693100 2.8 1019425
12:00+8wnw1188100 0.3 1018270
15:00+10se1181100 0.3 1017489
18:00+10s128269 0.0 1018286
21:00+9s228695 0.0 101860